Starlink 1112

operational
NORAD ID: 44925 Int'l Des: 2020-001 Owner: SPXS Country: US Constellation: starlink
LEOCIRCULAR

Starlink 1112について

説明を読み込み中...

リアルタイム位置

3D地球を読み込み中...

次回通過

高度履歴

Altitude vs Time

uPlot chart will show altitude changes over time

軌道要素

1 44925U 20001M 25353.00002315 .00107851 00000-0 99358-3 0 9995
2 44925 53.0489 288.2669 0009288 65.2814 79.7713 15.66785455 5954
Epoch: Dec 19, 2025 • Age: 4 hours

現在のステータス

高度 388.8 km
速度 7.67 km/s
衛星直下点 -48.09°S, 87.78°E
打ち上げ日 Jan 7, 2020
運用期間 5.9 years
タイプ internet

技術仕様

分類 Payload
質量 260.00 kg
乾燥質量 248.00 kg
総質量 260.00 kg
長さ 0.20 m
直径 2.80 m
スパン 9.00 m
形状 Box + pan
製造者 SPXS
バスタイプ Starlink
フェーズステータス In Orbit
所有者/国 SPXS/US

大規模コンステレーション

Loading constellations...